Back to catalog

THORAD AGENA D DEB

AliveSSO
NORAD 10136·DEBRIS·🇺🇸 United States

Launched Apr 8, 1970 from Vandenberg Space Force Base

Loading…

Next Passes (next 24 hours)

TLE

FreshSource: Space-Track

Epoch: Sep 14, 2026, 10:06 UTC

1 10136U 70025NQ  26257.42097554  .00000002  00000-0  75352-4 0  9991
2 10136 100.1762 235.6072 0001664 114.7302  48.7989 13.52045021782555

Track THORAD AGENA D DEB in real time with AllMySat

Download on the App Store